This demonstration page uses our WeatherBlox Daily Observations layout. Learn more.

Left ArrowRight Arrow

39.51506, -84.39828

Hourly Observations for August 23, 2016

Temp ( °F °C ) Dew Point ( °F °C ) Humidity (%) Winds ( mph kmh ) Pressure ( in mb ) Visibility ( mi km ) Precip ( " mm )
12:15 am 00:15 Clear 61 16 55 13 83 83 N N/A 30.24 1024 10 16 N/A
12:35 am 00:35 Clear 61 16 55 13 83 83 N N/A 30.24 1024 10 16 N/A
12:55 am 00:55 Clear 61 16 55 13 83 83 N N/A 30.24 1024 10 16 N/A
1:15 am 01:15 Clear 60 15.7 55 12.8 83 83 N N/A 30.27 1025 10 16 N/A
1:35 am 01:35 Clear 60 15.3 54 12.4 83 83 N N/A 30.27 1025 10 16 N/A
1:55 am 01:55 Clear 60 15.3 55 12.5 84 84 N N/A 30.27 1025 10 16 N/A
2:15 am 02:15 Clear 60 15.3 55 12.5 84 84 N N/A 30.27 1025 10 16 N/A
2:35 am 02:35 Clear 60 15.3 55 12.5 84 84 N N/A 30.27 1025 10 16 N/A
2:55 am 02:55 Clear 60 15.3 55 12.5 84 84 NNW 3 6 30.27 1025 10 16 N/A
3:15 am 03:15 Clear 60 15.3 55 12.5 84 84 N 3 6 30.27 1025 10 16 N/A
3:35 am 03:35 Clear 60 15.3 55 12.7 85 85 N N/A 30.27 1025 10 16 N/A
3:55 am 03:55 Clear 60 15.3 55 12.7 85 85 N N/A 30.27 1025 10 16 N/A
4:15 am 04:15 Clear 60 15.3 55 12.7 85 85 N N/A 30.27 1025 10 16 N/A
4:35 am 04:35 Clear 60 15.3 55 12.7 85 85 N 3 6 30.27 1025 10 16 N/A
4:55 am 04:55 Clear 60 15.3 55 12.7 85 85 N 3 6 30.27 1025 10 16 N/A
5:15 am 05:15 Clear 60 15.3 55 12.7 85 85 N N/A 30.27 1025 10 16 N/A
5:35 am 05:35 Clear 59 15.1 55 12.5 85 85 N N/A 30.27 1025 10 16 N/A
5:55 am 05:55 Clear 57 13.9 52 11.3 84 84 N N/A 30.27 1025 10 16 N/A
6:15 am 06:15 Clear 57 13.8 52 11.3 85 85 N N/A 30.27 1025 10 16 N/A
6:35 am 06:35 Clear 57 13.8 52 11.3 85 85 NNW 5 7 30.30 1026 10 16 N/A
6:55 am 06:55 Clear 57 13.8 52 11.3 85 85 N N/A 30.30 1026 10 16 N/A
7:15 am 07:15 Sunny 57 13.8 52 11.3 85 85 N 3 6 30.30 1026 10 16 N/A
7:35 am 07:35 Sunny 60 15.3 55 12.7 85 85 NNW 3 6 30.30 1026 10 16 N/A
7:55 am 07:55 Sunny 60 15.3 55 12.7 85 85 N N/A 30.30 1026 10 16 N/A
8:15 am 08:15 Sunny 61 16.1 56 13.2 83 83 N N/A 30.30 1026 10 16 N/A
8:35 am 08:35 Sunny 63 17 57 13.9 82 82 N N/A 30.30 1026 10 16 N/A
8:55 am 08:55 Sunny 65 18.4 58 14.6 79 79 N N/A 30.27 1025 10 16 N/A
9:15 am 09:15 Sunny 69 20.8 61 16.3 76 76 N N/A 30.27 1025 10 16 N/A
9:35 am 09:35 Sunny 69 20.8 61 15.9 74 74 N N/A 30.27 1025 10 16 N/A
9:55 am 09:55 Sunny 72 22.3 59 15.2 64 64 N N/A 30.27 1025 10 16 N/A
10:15 am 10:15 Sunny 74 23.6 60 15.5 61 61 N N/A 30.27 1025 10 16 N/A
10:35 am 10:35 Sunny 74 23.6 58 14.6 57 57 SSW 5 7 30.30 1026 10 16 N/A
10:55 am 10:55 Sunny 77 25.1 59 14.9 53 53 S 6 9 30.30 1026 10 16 N/A
11:15 am 11:15 Sunny 77 25.1 58 14.5 52 52 SSW 5 7 30.27 1025 10 16 N/A
11:35 am 11:35 Sunny 80 26.5 55 13 43 43 S 6 9 30.30 1026 10 16 N/A
11:55 am 11:55 Partly Cloudy 79 26.3 55 12.6 43 43 S 3 6 30.27 1025 10 16 N/A
12:15 pm 12:15 Mostly Cloudy 80 26.5 53 11.9 40 40 SE 6 9 30.27 1025 10 16 N/A
12:35 pm 12:35 Partly Cloudy 80 26.4 53 11.4 39 39 SW 3 6 30.27 1025 10 16 N/A
12:55 pm 12:55 Partly Cloudy 80 26.5 52 11.1 38 38 SW 5 7 30.27 1025 10 16 N/A
1:15 pm 13:15 Partly Cloudy 80 26.5 53 11.8 40 40 S 7 11 30.27 1025 10 16 N/A
1:35 pm 13:35 Partly Cloudy 80 26.5 53 11.4 39 39 S 5 7 30.27 1025 10 16 N/A
1:55 pm 13:55 Mostly Cloudy 81 27.1 54 12 39 39 SSE 7 11 30.27 1025 10 16 N/A
2:15 pm 14:15 Mostly Cloudy 80 26.5 51 10.8 37 37 N N/A 30.24 1024 10 16 N/A
2:35 pm 14:35 Mostly Cloudy 81 27 53 11.6 38 38 SE 3 6 30.24 1024 10 16 N/A
2:55 pm 14:55 Mostly Cloudy 81 27.1 54 12.2 40 40 SSE 7 11 30.24 1024 10 16 N/A
3:15 pm 15:15 Partly Cloudy 82 28 53 11.8 37 37 S 6 9 30.24 1024 10 16 N/A
3:35 pm 15:35 Partly Cloudy 81 27.4 53 11.4 37 37 N N/A 30.21 1023 10 16 N/A
3:55 pm 15:55 Mostly Cloudy 82 28 53 11.9 37 37 ESE 12 19 30.21 1023 10 16 N/A
4:15 pm 16:15 Partly Cloudy 81 27.4 53 11.5 37 37 ESE 5 7 30.21 1023 10 16 N/A
4:35 pm 16:35 Partly Cloudy 82 27.7 54 12 38 38 SSE 6 9 30.21 1023 10 16 N/A
4:55 pm 16:55 Partly Cloudy 82 27.9 53 11.9 37 37 SE 13 20 30.21 1023 10 16 N/A
5:15 pm 17:15 Partly Cloudy 82 28 53 11.8 37 37 S 7 11 30.21 1023 10 16 N/A
5:35 pm 17:35 Partly Cloudy 82 27.5 54 12 38 38 E 8 13 30.21 1023 10 16 N/A
5:55 pm 17:55 Partly Cloudy 82 27.5 53 11.8 38 38 ESE 9 15 30.21 1023 10 16 N/A
6:15 pm 18:15 Partly Cloudy 82 28 53 11.8 37 37 ESE 8 13 30.21 1023 10 16 N/A
6:35 pm 18:35 Mostly Cloudy 81 27.2 54 12 39 39 SE 9 15 30.21 1023 10 16 N/A
6:55 pm 18:55 Partly Cloudy 80 26.6 53 11.9 40 40 SE 5 7 30.21 1023 10 16 N/A
7:15 pm 19:15 Sunny 80 26.5 55 12.6 42 42 SE 6 9 30.21 1023 10 16 N/A
7:35 pm 19:35 Sunny 80 26.5 56 13.3 44 44 E 6 9 30.21 1023 10 16 N/A
7:55 pm 19:55 Sunny 77 25.1 55 12.8 46 46 E 6 9 30.21 1023 10 16 N/A
8:15 pm 20:15 Sunny 77 25.1 55 12.9 47 47 E 3 6 30.21 1023 10 16 N/A
8:35 pm 20:35 Clear 76 24.5 57 14.1 52 52 N N/A 30.21 1023 10 16 N/A
8:55 pm 20:55 Clear 71 21.7 62 16.5 72 72 N N/A 30.21 1023 10 16 N/A
9:15 pm 21:15 Clear 69 20.8 62 16.7 77 77 N N/A 30.21 1023 10 16 N/A
9:35 pm 21:35 Clear 69 20.8 62 16.9 78 78 N N/A 30.21 1023 10 16 N/A
9:55 pm 21:55 Clear 69 20.8 62 16.7 77 77 N N/A 30.21 1023 10 16 N/A
10:15 pm 22:15 Clear 69 20.8 63 17 79 79 N N/A 30.21 1023 10 16 N/A
10:35 pm 22:35 Clear 69 20.8 63 17 79 79 N N/A 30.21 1023 10 16 N/A
10:55 pm 22:55 Clear 68 20 62 16.6 81 81 N N/A 30.21 1023 10 16 N/A
11:15 pm 23:15 Clear 69 20.8 63 17.1 79 79 N N/A 30.21 1023 10 16 N/A
11:35 pm 23:35 Clear 67 19.5 61 16 80 80 N N/A 30.18 1022 10 16 N/A
11:55 pm 23:55 Clear 67 19.5 61 16.1 81 81 N N/A 30.21 1023 10 16 N/A

Powered by AerisWeather